Time,TemperatureF,DewpointF,PressureIn,WindDirection,WindDirectionDegrees,WindSpeedMPH,WindSpeedGustMPH,Humidity,HourlyPrecipIn,Conditions,Clouds,dailyrainin,SoftwareType,DateUTC
2013-08-23 00:01:00,72.1,68.1,29.35,WSW,244,0.0,0.0,87,0.00,,,0.00,VWS V14.01,2013-08-23 04:01:00,
2013-08-23 00:06:00,72.1,68.1,29.35,WSW,244,0.0,0.0,87,0.00,,,0.00,VWS V14.01,2013-08-23 04:06:00,
2013-08-23 00:11:00,72.0,67.9,29.35,WSW,244,0.0,0.0,87,0.00,,,0.00,VWS V14.01,2013-08-23 04:11:00,
2013-08-23 00:16:00,72.0,67.9,29.35,West,259,2.2,2.2,87,0.00,,,0.00,VWS V14.01,2013-08-23 04:16:00,
2013-08-23 00:21:00,72.0,67.9,29.38,SSW,207,0.0,0.0,87,0.00,,,0.00,VWS V14.01,2013-08-23 04:21:00,
2013-08-23 00:26:00,71.8,67.7,29.38,SSW,208,0.0,0.0,87,0.00,,,0.00,VWS V14.01,2013-08-23 04:26:00,
2013-08-23 00:31:00,71.8,67.7,29.38,SSW,208,0.0,0.0,87,0.00,,,0.00,VWS V14.01,2013-08-23 04:31:00,
2013-08-23 00:36:00,71.8,67.7,29.38,SSW,208,0.0,0.0,87,0.00,,,0.00,VWS V14.01,2013-08-23 04:36:00,
2013-08-23 00:41:00,71.8,68.0,29.38,SSW,208,0.0,0.0,88,0.00,,,0.00,VWS V14.01,2013-08-23 04:41:00,
2013-08-23 00:46:00,71.8,68.0,29.35,SSW,208,0.0,0.0,88,0.00,,,0.00,VWS V14.01,2013-08-23 04:46:00,
2013-08-23 00:51:00,71.8,68.0,29.35,SSW,208,0.0,0.0,88,0.00,,,0.00,VWS V14.01,2013-08-23 04:51:00,
2013-08-23 00:56:00,71.8,68.0,29.35,SSW,208,0.0,0.0,88,0.00,,,0.00,VWS V14.01,2013-08-23 04:56:00,
2013-08-23 01:01:00,71.8,68.0,29.35,SSW,208,0.0,0.0,88,0.00,,,0.00,VWS V14.01,2013-08-23 05:01:00,
2013-08-23 01:06:00,71.8,68.0,29.35,SSW,208,0.0,0.0,88,0.00,,,0.00,VWS V14.01,2013-08-23 05:06:00,
2013-08-23 01:11:00,71.8,68.0,29.35,SSW,208,0.0,0.0,88,0.00,,,0.00,VWS V14.01,2013-08-23 05:11:00,
2013-08-23 01:16:00,71.6,67.9,29.35,SSW,208,0.0,0.0,88,0.00,,,0.00,VWS V14.01,2013-08-23 05:16:00,
2013-08-23 01:21:00,71.6,67.9,29.35,SSW,208,0.0,0.0,88,0.00,,,0.00,VWS V14.01,2013-08-23 05:21:00,
2013-08-23 01:26:00,71.6,67.9,29.35,SSW,208,0.0,0.0,88,0.00,,,0.00,VWS V14.01,2013-08-23 05:26:00,
2013-08-23 01:31:00,71.4,68.0,29.38,SSW,208,0.0,0.0,89,0.00,,,0.00,VWS V14.01,2013-08-23 05:31:00,
2013-08-23 01:36:00,71.4,68.0,29.38,SSW,208,0.0,0.0,89,0.00,,,0.00,VWS V14.01,2013-08-23 05:36:00,
2013-08-23 01:41:00,71.2,67.8,29.38,SSW,208,0.0,0.0,89,0.00,,,0.00,VWS V14.01,2013-08-23 05:41:00,
2013-08-23 01:46:00,71.2,67.8,29.35,SSW,208,0.0,0.0,89,0.00,,,0.00,VWS V14.01,2013-08-23 05:46:00,
2013-08-23 01:51:00,71.2,67.8,29.35,SSW,208,0.0,0.0,89,0.00,,,0.00,VWS V14.01,2013-08-23 05:51:00,
2013-08-23 01:56:00,71.1,67.7,29.35,SSW,208,0.0,0.0,89,0.00,,,0.00,VWS V14.01,2013-08-23 05:56:00,
2013-08-23 02:01:00,71.1,67.7,29.35,SSW,208,0.0,0.0,89,0.00,,,0.00,VWS V14.01,2013-08-23 06:01:00,
2013-08-23 02:06:00,71.1,67.7,29.35,SSW,208,0.0,0.0,89,0.00,,,0.00,VWS V14.01,2013-08-23 06:06:00,
2013-08-23 02:11:00,71.1,67.7,29.35,SSW,208,0.0,0.0,89,0.00,,,0.00,VWS V14.01,2013-08-23 06:11:00,
2013-08-23 02:16:00,71.1,68.0,29.35,SSW,208,0.0,0.0,90,0.00,,,0.00,VWS V14.01,2013-08-23 06:16:00,
2013-08-23 02:21:00,71.1,68.0,29.38,SSW,208,0.0,0.0,90,0.00,,,0.00,VWS V14.01,2013-08-23 06:21:00,
2013-08-23 02:26:00,71.1,68.0,29.38,SSW,208,0.0,0.0,90,0.00,,,0.00,VWS V14.01,2013-08-23 06:26:00,
2013-08-23 02:31:00,71.2,68.2,29.35,SSW,208,0.0,0.0,90,0.00,,,0.00,VWS V14.01,2013-08-23 06:31:00,
2013-08-23 02:36:00,71.2,68.2,29.35,SSW,208,0.0,0.0,90,0.00,,,0.00,VWS V14.01,2013-08-23 06:36:00,
2013-08-23 02:41:00,71.1,68.0,29.35,SSW,208,0.0,0.0,90,0.00,,,0.00,VWS V14.01,2013-08-23 06:41:00,
2013-08-23 02:46:00,71.1,68.0,29.35,SSW,208,0.0,0.0,90,0.00,,,0.00,VWS V14.01,2013-08-23 06:46:00,
2013-08-23 02:51:00,71.1,68.0,29.35,SSW,208,0.0,0.0,90,0.00,,,0.00,VWS V14.01,2013-08-23 06:51:00,
2013-08-23 02:56:00,71.1,68.0,29.35,SSW,208,0.0,0.0,90,0.00,,,0.00,VWS V14.01,2013-08-23 06:56:00,
2013-08-23 03:01:00,70.9,67.8,29.35,SSW,208,0.0,0.0,90,0.00,,,0.00,VWS V14.01,2013-08-23 07:01:00,
2013-08-23 03:06:00,70.9,67.8,29.38,SSW,208,0.0,0.0,90,0.00,,,0.00,VWS V14.01,2013-08-23 07:06:00,
2013-08-23 03:11:00,70.7,67.6,29.38,SSW,208,0.0,0.0,90,0.00,,,0.00,VWS V14.01,2013-08-23 07:11:00,
2013-08-23 03:16:00,70.7,67.6,29.35,SSW,208,0.0,0.0,90,0.00,,,0.00,VWS V14.01,2013-08-23 07:16:00,
2013-08-23 03:21:00,70.5,67.4,29.35,SSW,208,0.0,0.0,90,0.00,,,0.00,VWS V14.01,2013-08-23 07:21:00,
2013-08-23 03:26:00,70.5,67.4,29.35,SSW,208,0.0,0.0,90,0.00,,,0.00,VWS V14.01,2013-08-23 07:26:00,
2013-08-23 03:31:00,70.7,67.6,29.35,SSW,208,0.0,0.0,90,0.00,,,0.00,VWS V14.01,2013-08-23 07:31:00,
2013-08-23 03:36:00,70.7,67.6,29.35,SSW,208,0.0,0.0,90,0.00,,,0.00,VWS V14.01,2013-08-23 07:36:00,
2013-08-23 03:41:00,70.7,67.6,29.35,SSW,208,0.0,0.0,90,0.00,,,0.00,VWS V14.01,2013-08-23 07:41:00,
2013-08-23 03:46:00,70.7,67.6,29.38,SSW,208,0.0,0.0,90,0.00,,,0.00,VWS V14.01,2013-08-23 07:46:00,
2013-08-23 03:51:00,70.9,67.8,29.38,SSW,208,0.0,0.0,90,0.00,,,0.00,VWS V14.01,2013-08-23 07:51:00,
2013-08-23 03:56:00,70.9,67.8,29.38,SSW,208,0.0,0.0,90,0.00,,,0.00,VWS V14.01,2013-08-23 07:56:00,
2013-08-23 04:01:00,71.1,68.0,29.38,SSW,203,0.0,0.0,90,0.00,,,0.00,VWS V14.01,2013-08-23 08:01:00,
2013-08-23 04:06:00,71.1,67.7,29.38,SSW,203,0.0,0.0,89,0.00,,,0.00,VWS V14.01,2013-08-23 08:06:00,
2013-08-23 04:11:00,71.1,67.7,29.38,SSW,203,0.0,0.0,89,0.00,,,0.00,VWS V14.01,2013-08-23 08:11:00,
2013-08-23 04:16:00,71.1,67.7,29.38,NW,317,0.0,2.7,89,0.00,,,0.00,VWS V14.01,2013-08-23 08:16:00,
2013-08-23 04:21:00,71.1,67.3,29.35,NW,317,0.0,0.0,88,0.00,,,0.00,VWS V14.01,2013-08-23 08:21:00,
2013-08-23 04:26:00,71.1,67.3,29.35,WSW,245,0.0,0.0,88,0.00,,,0.00,VWS V14.01,2013-08-23 08:26:00,
2013-08-23 04:31:00,71.1,67.0,29.35,WSW,245,0.0,0.0,87,0.00,,,0.00,VWS V14.01,2013-08-23 08:31:00,
2013-08-23 04:36:00,70.9,66.5,29.38,SW,221,0.0,0.0,86,0.00,,,0.00,VWS V14.01,2013-08-23 08:36:00,
2013-08-23 04:41:00,70.7,66.0,29.38,SSW,196,0.0,0.0,85,0.00,,,0.00,VWS V14.01,2013-08-23 08:41:00,
2013-08-23 04:46:00,70.5,65.5,29.38,SSW,196,0.0,0.0,84,0.00,,,0.00,VWS V14.01,2013-08-23 08:46:00,
2013-08-23 04:51:00,70.3,64.9,29.38,SSW,196,0.0,0.0,83,0.00,,,0.00,VWS V14.01,2013-08-23 08:51:00,
2013-08-23 04:56:00,70.2,64.4,29.38,SSW,196,0.0,0.0,82,0.00,,,0.00,VWS V14.01,2013-08-23 08:56:00,
2013-08-23 05:01:00,70.0,63.9,29.38,SSW,196,0.0,0.0,81,0.00,,,0.00,VWS V14.01,2013-08-23 09:01:00,
2013-08-23 05:06:00,69.8,63.7,29.38,SSW,196,0.0,0.0,81,0.00,,,0.00,VWS V14.01,2013-08-23 09:06:00,
2013-08-23 05:11:00,69.6,63.5,29.38,SSW,196,0.0,0.0,81,0.00,,,0.00,VWS V14.01,2013-08-23 09:11:00,
2013-08-23 05:16:00,69.4,63.0,29.38,SSW,196,0.0,0.0,80,0.00,,,0.00,VWS V14.01,2013-08-23 09:16:00,
2013-08-23 05:21:00,69.3,62.8,29.38,South,181,0.0,0.0,80,0.00,,,0.00,VWS V14.01,2013-08-23 09:21:00,
2013-08-23 05:26:00,69.3,62.5,29.38,South,181,0.0,0.0,79,0.00,,,0.00,VWS V14.01,2013-08-23 09:26:00,
2013-08-23 05:31:00,69.3,62.5,29.38,South,181,0.0,0.0,79,0.00,,,0.00,VWS V14.01,2013-08-23 09:31:00,
2013-08-23 05:36:00,69.1,61.9,29.38,South,181,0.0,0.0,78,0.00,,,0.00,VWS V14.01,2013-08-23 09:36:00,
2013-08-23 05:41:00,69.1,61.9,29.38,South,181,0.0,0.0,78,0.00,,,0.00,VWS V14.01,2013-08-23 09:41:00,
2013-08-23 05:46:00,68.9,61.8,29.38,South,181,0.0,0.0,78,0.00,,,0.00,VWS V14.01,2013-08-23 09:46:00,
2013-08-23 05:51:00,68.7,61.6,29.38,South,181,0.0,0.0,78,0.00,,,0.00,VWS V14.01,2013-08-23 09:51:00,
2013-08-23 05:56:00,68.5,61.0,29.38,South,181,0.0,0.0,77,0.00,,,0.00,VWS V14.01,2013-08-23 09:56:00,
2013-08-23 06:01:00,68.4,60.9,29.38,South,181,0.0,0.0,77,0.00,,,0.00,VWS V14.01,2013-08-23 10:01:00,
2013-08-23 06:06:00,68.2,60.7,29.38,South,181,0.0,0.0,77,0.00,,,0.00,VWS V14.01,2013-08-23 10:06:00,
2013-08-23 06:11:00,68.2,60.7,29.38,South,181,0.0,0.0,77,0.00,,,0.00,VWS V14.01,2013-08-23 10:11:00,
2013-08-23 06:16:00,68.0,60.5,29.38,South,181,0.0,0.0,77,0.00,,,0.00,VWS V14.01,2013-08-23 10:16:00,
2013-08-23 06:21:00,68.0,60.5,29.41,South,184,0.0,0.0,77,0.00,,,0.00,VWS V14.01,2013-08-23 10:21:00,
2013-08-23 06:26:00,68.0,60.5,29.41,South,184,0.0,0.0,77,0.00,,,0.00,VWS V14.01,2013-08-23 10:26:00,
2013-08-23 06:31:00,68.0,60.5,29.41,South,184,0.0,0.0,77,0.00,,,0.00,VWS V14.01,2013-08-23 10:31:00,
2013-08-23 06:36:00,68.0,60.5,29.41,South,184,0.0,0.0,77,0.00,,,0.00,VWS V14.01,2013-08-23 10:36:00,
2013-08-23 06:41:00,68.0,60.5,29.41,South,184,0.0,0.0,77,0.00,,,0.00,VWS V14.01,2013-08-23 10:41:00,
2013-08-23 06:46:00,68.0,60.5,29.41,South,184,0.0,0.0,77,0.00,,,0.00,VWS V14.01,2013-08-23 10:46:00,
2013-08-23 06:51:00,68.0,60.5,29.41,South,184,0.0,0.0,77,0.00,,,0.00,VWS V14.01,2013-08-23 10:51:00,
2013-08-23 06:56:00,68.2,60.7,29.41,SSW,199,0.0,0.0,77,0.00,,,0.00,VWS V14.01,2013-08-23 10:56:00,
2013-08-23 07:01:00,68.2,60.7,29.41,SSW,199,0.0,0.0,77,0.00,,,0.00,VWS V14.01,2013-08-23 11:01:00,
2013-08-23 07:06:00,68.4,60.9,29.41,SSW,192,0.0,0.0,77,0.00,,,0.00,VWS V14.01,2013-08-23 11:06:00,
2013-08-23 07:11:00,68.4,60.9,29.41,SSE,161,0.0,0.0,77,0.00,,,0.00,VWS V14.01,2013-08-23 11:11:00,
2013-08-23 07:16:00,68.4,60.5,29.41,SSE,160,0.0,0.0,76,0.00,,,0.00,VWS V14.01,2013-08-23 11:16:00,
2013-08-23 07:21:00,68.4,60.5,29.41,SSE,160,0.0,0.0,76,0.00,,,0.00,VWS V14.01,2013-08-23 11:21:00,
2013-08-23 07:26:00,68.5,60.7,29.41,SSE,160,0.0,0.0,76,0.00,,,0.00,VWS V14.01,2013-08-23 11:26:00,
2013-08-23 07:31:00,68.5,60.7,29.44,SSE,160,0.0,0.0,76,0.00,,,0.00,VWS V14.01,2013-08-23 11:31:00,
2013-08-23 07:36:00,68.5,60.7,29.44,South,187,0.0,0.0,76,0.00,,,0.00,VWS V14.01,2013-08-23 11:36:00,
2013-08-23 07:41:00,68.5,60.7,29.44,South,190,0.0,0.0,76,0.00,,,0.00,VWS V14.01,2013-08-23 11:41:00,
2013-08-23 07:46:00,68.5,60.7,29.44,South,190,0.0,0.0,76,0.00,,,0.00,VWS V14.01,2013-08-23 11:46:00,
2013-08-23 07:51:00,68.5,60.7,29.44,South,190,0.0,0.0,76,0.00,,,0.00,VWS V14.01,2013-08-23 11:51:00,
2013-08-23 07:56:00,68.9,61.0,29.44,South,189,0.0,0.0,76,0.00,,,0.00,VWS V14.01,2013-08-23 11:56:00,
2013-08-23 08:01:00,69.3,61.0,29.44,South,189,0.0,0.0,75,0.00,,,0.00,VWS V14.01,2013-08-23 12:01:00,
2013-08-23 08:06:00,69.4,61.2,29.44,SSE,148,0.0,0.0,75,0.00,,,0.00,VWS V14.01,2013-08-23 12:06:00,
2013-08-23 08:11:00,69.8,61.2,29.44,SSW,200,0.0,0.0,74,0.00,,,0.00,VWS V14.01,2013-08-23 12:11:00,
2013-08-23 08:16:00,70.2,61.1,29.44,SSW,195,0.0,0.0,73,0.00,,,0.00,VWS V14.01,2013-08-23 12:16:00,
2013-08-23 08:21:00,70.3,60.9,29.44,SSW,196,0.0,0.0,72,0.00,,,0.00,VWS V14.01,2013-08-23 12:21:00,
2013-08-23 08:26:00,70.5,60.7,29.44,West,275,0.0,0.0,71,0.00,,,0.00,VWS V14.01,2013-08-23 12:26:00,
2013-08-23 08:31:00,70.5,60.3,29.44,SSW,199,0.0,0.0,70,0.00,,,0.00,VWS V14.01,2013-08-23 12:31:00,
2013-08-23 08:36:00,70.7,60.0,29.44,SSW,199,0.0,0.0,69,0.00,,,0.00,VWS V14.01,2013-08-23 12:36:00,
2013-08-23 08:41:00,70.9,60.2,29.44,WSW,242,0.0,0.0,69,0.00,,,0.00,VWS V14.01,2013-08-23 12:41:00,
2013-08-23 08:46:00,71.1,60.0,29.44,South,183,0.0,0.0,68,0.00,,,0.00,VWS V14.01,2013-08-23 12:46:00,
2013-08-23 08:50:00,71.4,59.9,29.44,South,169,0.0,0.0,67,0.00,,,0.00,VWS V14.01,2013-08-23 12:50:00,
2013-08-23 08:56:00,71.6,59.7,29.44,South,186,0.0,3.6,66,0.00,,,0.00,VWS V14.01,2013-08-23 12:56:00,
2013-08-23 09:01:00,71.8,59.8,29.44,South,186,0.0,0.0,66,0.00,,,0.00,VWS V14.01,2013-08-23 13:01:00,
2013-08-23 09:05:00,71.8,59.4,29.44,SE,137,0.0,0.0,65,0.00,,,0.00,VWS V14.01,2013-08-23 13:05:00,
2013-08-23 09:10:00,71.6,59.2,29.44,SW,225,0.0,0.0,65,0.00,,,0.00,VWS V14.01,2013-08-23 13:10:00,
2013-08-23 09:15:00,71.1,58.3,29.44,SW,220,0.0,0.0,64,0.00,,,0.00,VWS V14.01,2013-08-23 13:15:00,
2013-08-23 09:20:00,70.9,58.1,29.44,SW,220,0.0,0.0,64,0.00,,,0.00,VWS V14.01,2013-08-23 13:20:00,
2013-08-23 09:25:00,70.7,57.9,29.44,SW,214,0.0,0.0,64,0.00,,,0.00,VWS V14.01,2013-08-23 13:25:00,
2013-08-23 09:30:00,70.7,58.4,29.44,SW,214,0.0,0.0,65,0.00,,,0.00,VWS V14.01,2013-08-23 13:30:00,
2013-08-23 09:35:00,71.1,58.7,29.44,SW,214,0.0,0.0,65,0.00,,,0.00,VWS V14.01,2013-08-23 13:35:00,
2013-08-23 09:40:00,71.2,58.5,29.44,West,263,2.2,2.2,64,0.00,,,0.00,VWS V14.01,2013-08-23 13:40:00,
2013-08-23 09:45:00,71.4,58.6,29.44,WSW,252,0.0,0.0,64,0.00,,,0.00,VWS V14.01,2013-08-23 13:45:00,
2013-08-23 09:50:00,71.6,58.3,29.44,SW,226,0.0,0.0,63,0.00,,,0.00,VWS V14.01,2013-08-23 13:50:00,
2013-08-23 09:55:00,72.0,58.2,29.44,SW,230,0.0,0.0,62,0.00,,,0.00,VWS V14.01,2013-08-23 13:55:00,
2013-08-23 10:00:00,72.5,59.2,29.47,SW,229,0.0,0.0,63,0.00,,,0.00,VWS V14.01,2013-08-23 14:00:00,
2013-08-23 10:05:00,72.9,59.1,29.47,SSE,161,3.1,3.1,62,0.00,,,0.00,VWS V14.01,2013-08-23 14:05:00,
2013-08-23 10:10:00,73.2,59.0,29.47,SW,233,2.7,2.7,61,0.00,,,0.00,VWS V14.01,2013-08-23 14:10:00,
2013-08-23 10:15:00,74.3,59.1,29.47,SSW,199,0.0,0.0,59,0.00,,,0.00,VWS V14.01,2013-08-23 14:15:00,
2013-08-23 10:20:00,74.7,59.4,29.47,South,181,0.0,0.0,59,0.00,,,0.00,VWS V14.01,2013-08-23 14:20:00,
2013-08-23 10:25:00,75.4,58.1,29.47,South,181,0.0,0.0,55,0.00,,,0.00,VWS V14.01,2013-08-23 14:25:00,
2013-08-23 10:30:00,75.6,56.7,29.47,SSW,202,0.0,0.0,52,0.00,,,0.00,VWS V14.01,2013-08-23 14:30:00,
2013-08-23 10:35:00,75.7,56.3,29.47,West,261,0.0,0.0,51,0.00,,,0.00,VWS V14.01,2013-08-23 14:35:00,
2013-08-23 10:40:00,75.6,55.6,29.47,SSW,212,0.0,0.0,50,0.00,,,0.00,VWS V14.01,2013-08-23 14:40:00,
2013-08-23 10:45:00,75.6,55.6,29.47,SSW,209,0.0,0.0,50,0.00,,,0.00,VWS V14.01,2013-08-23 14:45:00,
2013-08-23 10:50:00,75.9,56.0,29.47,SSW,209,0.0,0.0,50,0.00,,,0.00,VWS V14.01,2013-08-23 14:50:00,
2013-08-23 10:55:00,75.7,55.2,29.47,SSE,163,0.0,0.0,49,0.00,,,0.00,VWS V14.01,2013-08-23 14:55:00,
2013-08-23 11:00:00,75.2,54.8,29.47,SSW,193,0.0,0.0,49,0.00,,,0.00,VWS V14.01,2013-08-23 15:00:00,
2013-08-23 11:05:00,75.0,54.6,29.47,SSW,198,0.0,0.0,49,0.00,,,0.00,VWS V14.01,2013-08-23 15:05:00,
2013-08-23 11:10:00,75.2,54.2,29.47,South,174,0.0,0.0,48,0.00,,,0.00,VWS V14.01,2013-08-23 15:10:00,
2013-08-23 11:15:00,75.4,54.3,29.47,South,178,0.0,0.0,48,0.00,,,0.00,VWS V14.01,2013-08-23 15:15:00,
2013-08-23 11:20:00,75.6,54.5,29.47,SW,216,0.0,0.0,48,0.00,,,0.00,VWS V14.01,2013-08-23 15:20:00,
2013-08-23 11:25:00,76.5,54.8,29.47,SW,232,0.0,0.0,47,0.00,,,0.00,VWS V14.01,2013-08-23 15:25:00,
2013-08-23 11:30:00,77.0,54.7,29.47,West,260,3.1,3.1,46,0.00,,,0.00,VWS V14.01,2013-08-23 15:30:00,
2013-08-23 11:35:00,77.4,53.8,29.47,West,260,0.0,0.0,44,0.00,,,0.00,VWS V14.01,2013-08-23 15:35:00,
2013-08-23 11:40:00,77.5,52.7,29.47,SW,236,2.7,2.7,42,0.00,,,0.00,VWS V14.01,2013-08-23 15:40:00,
2013-08-23 11:45:00,78.1,53.2,29.47,SW,229,3.1,3.1,42,0.00,,,0.00,VWS V14.01,2013-08-23 15:45:00,
2013-08-23 11:50:00,78.4,53.5,29.47,SSE,160,0.0,0.0,42,0.00,,,0.00,VWS V14.01,2013-08-23 15:50:00,
2013-08-23 11:55:00,78.8,53.1,29.47,SSW,204,0.0,0.0,41,0.00,,,0.00,VWS V14.01,2013-08-23 15:55:00,
2013-08-23 12:00:00,79.2,53.5,29.47,West,272,0.0,0.0,41,0.00,,,0.00,VWS V14.01,2013-08-23 16:00:00,
2013-08-23 12:05:00,79.7,53.3,29.47,SSE,156,3.1,4.0,40,0.00,,,0.00,VWS V14.01,2013-08-23 16:05:00,
2013-08-23 12:10:00,80.1,53.6,29.47,SSE,158,0.0,0.0,40,0.00,,,0.00,VWS V14.01,2013-08-23 16:10:00,
2013-08-23 12:15:00,80.4,52.5,29.47,SSE,151,0.0,0.0,38,0.00,,,0.00,VWS V14.01,2013-08-23 16:15:00,
2013-08-23 12:20:00,80.8,52.8,29.47,SSW,197,0.0,0.0,38,0.00,,,0.00,VWS V14.01,2013-08-23 16:20:00,
2013-08-23 12:25:00,81.0,53.0,29.47,South,183,0.0,0.0,38,0.00,,,0.00,VWS V14.01,2013-08-23 16:25:00,
2013-08-23 12:30:00,81.5,52.7,29.47,SSW,208,0.0,0.0,37,0.00,,,0.00,VWS V14.01,2013-08-23 16:30:00,
2013-08-23 12:35:00,81.1,51.7,29.47,SW,227,0.0,0.0,36,0.00,,,0.00,VWS V14.01,2013-08-23 16:35:00,
2013-08-23 12:40:00,80.6,50.5,29.47,South,172,0.0,0.0,35,0.00,,,0.00,VWS V14.01,2013-08-23 16:40:00,
2013-08-23 12:45:00,79.7,49.7,29.47,SSE,157,0.0,0.0,35,0.00,,,0.00,VWS V14.01,2013-08-23 16:45:00,
2013-08-23 12:50:00,80.1,50.0,29.47,SSW,200,0.0,0.0,35,0.00,,,0.00,VWS V14.01,2013-08-23 16:50:00,
2013-08-23 12:55:00,80.8,49.0,29.47,South,184,2.2,2.2,33,0.00,,,0.00,VWS V14.01,2013-08-23 16:55:00,
2013-08-23 13:00:00,81.1,50.1,29.47,SSW,213,0.0,0.0,34,0.00,,,0.00,VWS V14.01,2013-08-23 17:00:00,
2013-08-23 13:05:00,81.7,49.0,29.47,WNW,292,3.1,4.9,32,0.00,,,0.00,VWS V14.01,2013-08-23 17:05:00,
2013-08-23 13:10:00,81.3,49.5,29.47,SW,236,0.0,0.0,33,0.00,,,0.00,VWS V14.01,2013-08-23 17:10:00,
2013-08-23 13:15:00,81.1,49.3,29.47,SSW,209,2.7,2.7,33,0.00,,,0.00,VWS V14.01,2013-08-23 17:15:00,
2013-08-23 13:20:00,81.3,49.5,29.47,SSE,162,2.7,2.7,33,0.00,,,0.00,VWS V14.01,2013-08-23 17:20:00,
2013-08-23 13:25:00,81.1,49.3,29.47,SW,221,0.0,0.0,33,0.00,,,0.00,VWS V14.01,2013-08-23 17:25:00,
2013-08-23 13:30:00,81.5,49.7,29.47,SSE,160,2.7,2.7,33,0.00,,,0.00,VWS V14.01,2013-08-23 17:30:00,
2013-08-23 13:35:00,81.7,49.8,29.47,South,177,2.2,2.2,33,0.00,,,0.00,VWS V14.01,2013-08-23 17:35:00,
2013-08-23 13:40:00,81.3,48.7,29.47,South,176,5.4,5.4,32,0.00,,,0.00,VWS V14.01,2013-08-23 17:40:00,
2013-08-23 13:45:00,81.0,48.4,29.47,SE,126,0.0,0.0,32,0.00,,,0.00,VWS V14.01,2013-08-23 17:45:00,
2013-08-23 13:50:00,81.5,48.8,29.47,SW,218,0.0,0.0,32,0.00,,,0.00,VWS V14.01,2013-08-23 17:50:00,
2013-08-23 13:55:00,81.9,49.1,29.47,SW,221,0.0,0.0,32,0.00,,,0.00,VWS V14.01,2013-08-23 17:55:00,
2013-08-23 14:00:00,81.5,48.0,29.47,WSW,240,2.7,2.7,31,0.00,,,0.00,VWS V14.01,2013-08-23 18:00:00,
2013-08-23 14:05:00,81.0,47.5,29.47,West,259,0.0,0.0,31,0.00,,,0.00,VWS V14.01,2013-08-23 18:05:00,
2013-08-23 14:10:00,80.8,47.4,29.47,SSE,161,0.0,0.0,31,0.00,,,0.00,VWS V14.01,2013-08-23 18:10:00,
2013-08-23 14:15:00,80.6,47.2,29.47,WSW,250,0.0,0.0,31,0.00,,,0.00,VWS V14.01,2013-08-23 18:15:00,
2013-08-23 14:20:00,80.4,47.0,29.47,WSW,239,0.0,0.0,31,0.00,,,0.00,VWS V14.01,2013-08-23 18:20:00,
2013-08-23 14:25:00,79.7,47.3,29.47,SSE,159,2.7,2.7,32,0.00,,,0.00,VWS V14.01,2013-08-23 18:25:00,
2013-08-23 14:30:00,79.9,47.4,29.50,SW,230,0.0,0.0,32,0.00,,,0.00,VWS V14.01,2013-08-23 18:30:00,
2013-08-23 14:35:00,79.9,46.6,29.50,SSE,159,0.0,0.0,31,0.00,,,0.00,VWS V14.01,2013-08-23 18:35:00,
2013-08-23 14:40:00,79.2,46.0,29.50,SW,229,0.0,3.1,31,0.00,,,0.00,VWS V14.01,2013-08-23 18:40:00,
2013-08-23 14:45:00,78.8,45.6,29.50,SSE,152,0.0,0.0,31,0.00,,,0.00,VWS V14.01,2013-08-23 18:45:00,
2013-08-23 14:50:00,78.3,46.0,29.50,SSE,152,0.0,0.0,32,0.00,,,0.00,VWS V14.01,2013-08-23 18:50:00,
2013-08-23 14:55:00,78.3,46.0,29.50,SSW,213,0.0,0.0,32,0.00,,,0.00,VWS V14.01,2013-08-23 18:55:00,
2013-08-23 15:00:00,78.4,46.2,29.50,SSW,202,0.0,0.0,32,0.00,,,0.00,VWS V14.01,2013-08-23 19:00:00,
2013-08-23 15:05:00,78.4,46.2,29.50,SSW,202,0.0,0.0,32,0.00,,,0.00,VWS V14.01,2013-08-23 19:05:00,
2013-08-23 15:10:00,78.6,46.3,29.50,SSW,202,3.6,3.6,32,0.00,,,0.00,VWS V14.01,2013-08-23 19:10:00,
2013-08-23 15:15:00,79.0,46.6,29.50,SSW,192,0.0,0.0,32,0.00,,,0.00,VWS V14.01,2013-08-23 19:15:00,
2013-08-23 15:20:00,79.0,46.6,29.50,SE,140,2.2,2.2,32,0.00,,,0.00,VWS V14.01,2013-08-23 19:20:00,
2013-08-23 15:25:00,78.3,46.0,29.50,South,172,0.0,0.0,32,0.00,,,0.00,VWS V14.01,2013-08-23 19:25:00,
2013-08-23 15:30:00,78.1,45.8,29.50,SSW,194,0.0,0.0,32,0.00,,,0.00,VWS V14.01,2013-08-23 19:30:00,
2013-08-23 15:35:00,77.7,46.3,29.50,SSW,192,0.0,0.0,33,0.00,,,0.00,VWS V14.01,2013-08-23 19:35:00,
2013-08-23 15:40:00,77.7,47.1,29.50,West,277,0.0,0.0,34,0.00,,,0.00,VWS V14.01,2013-08-23 19:40:00,
2013-08-23 15:45:00,77.5,47.0,29.50,SSW,198,0.0,0.0,34,0.00,,,0.00,VWS V14.01,2013-08-23 19:45:00,
2013-08-23 15:50:00,77.5,47.0,29.50,SSW,192,0.0,0.0,34,0.00,,,0.00,VWS V14.01,2013-08-23 19:50:00,
2013-08-23 15:55:00,77.7,47.1,29.50,SSW,192,0.0,0.0,34,0.00,,,0.00,VWS V14.01,2013-08-23 19:55:00,
2013-08-23 16:00:00,77.9,47.3,29.50,SW,214,0.0,0.0,34,0.00,,,0.00,VWS V14.01,2013-08-23 20:00:00,
2013-08-23 16:05:00,78.3,46.8,29.50,West,261,0.0,0.0,33,0.00,,,0.00,VWS V14.01,2013-08-23 20:05:00,
2013-08-23 16:10:00,78.3,47.6,29.50,South,187,2.7,2.7,34,0.00,,,0.00,VWS V14.01,2013-08-23 20:10:00,
2013-08-23 16:15:00,78.3,46.8,29.50,SSE,158,0.0,0.0,33,0.00,,,0.00,VWS V14.01,2013-08-23 20:15:00,
2013-08-23 16:20:00,78.3,46.8,29.50,SSE,156,0.0,0.0,33,0.00,,,0.00,VWS V14.01,2013-08-23 20:20:00,
2013-08-23 16:25:00,78.3,46.8,29.50,WSW,244,0.0,0.0,33,0.00,,,0.00,VWS V14.01,2013-08-23 20:25:00,
2013-08-23 16:30:00,78.3,46.8,29.50,WSW,248,0.0,0.0,33,0.00,,,0.00,VWS V14.01,2013-08-23 20:30:00,
2013-08-23 16:35:00,78.1,46.7,29.50,WSW,248,0.0,0.0,33,0.00,,,0.00,VWS V14.01,2013-08-23 20:35:00,
2013-08-23 16:40:00,77.9,46.5,29.50,WSW,248,0.0,0.0,33,0.00,,,0.00,VWS V14.01,2013-08-23 20:40:00,
2013-08-23 16:45:00,77.5,47.0,29.50,WSW,243,0.0,0.0,34,0.00,,,0.00,VWS V14.01,2013-08-23 20:45:00,
2013-08-23 16:50:00,77.4,46.0,29.50,SSE,164,0.0,0.0,33,0.00,,,0.00,VWS V14.01,2013-08-23 20:50:00,
2013-08-23 16:55:00,77.4,46.8,29.50,West,280,2.7,2.7,34,0.00,,,0.00,VWS V14.01,2013-08-23 20:55:00,
2013-08-23 17:00:00,77.4,46.8,29.50,WSW,238,0.0,0.0,34,0.00,,,0.00,VWS V14.01,2013-08-23 21:00:00,
2013-08-23 17:05:00,77.0,46.5,29.50,WSW,238,0.0,0.0,34,0.00,,,0.00,VWS V14.01,2013-08-23 21:05:00,
2013-08-23 17:10:00,76.6,46.2,29.50,WSW,238,0.0,0.0,34,0.00,,,0.00,VWS V14.01,2013-08-23 21:10:00,
2013-08-23 17:15:00,76.5,46.0,29.53,WSW,238,0.0,0.0,34,0.00,,,0.00,VWS V14.01,2013-08-23 21:15:00,
2013-08-23 17:20:00,76.1,46.5,29.53,WSW,238,0.0,0.0,35,0.00,,,0.00,VWS V14.01,2013-08-23 21:20:00,
2013-08-23 17:25:00,75.7,46.9,29.53,WSW,238,0.0,0.0,36,0.00,,,0.00,VWS V14.01,2013-08-23 21:25:00,
2013-08-23 17:30:00,75.6,46.8,29.53,SSW,197,0.0,0.0,36,0.00,,,0.00,VWS V14.01,2013-08-23 21:30:00,
2013-08-23 17:35:00,75.6,46.8,29.53,SSW,197,0.0,0.0,36,0.00,,,0.00,VWS V14.01,2013-08-23 21:35:00,
2013-08-23 17:40:00,75.7,46.9,29.53,SSW,197,0.0,0.0,36,0.00,,,0.00,VWS V14.01,2013-08-23 21:40:00,
2013-08-23 17:45:00,75.7,47.7,29.53,SSW,201,0.0,0.0,37,0.00,,,0.00,VWS V14.01,2013-08-23 21:45:00,
2013-08-23 17:50:00,75.6,46.8,29.53,South,186,0.0,4.0,36,0.00,,,0.00,VWS V14.01,2013-08-23 21:50:00,
2013-08-23 17:55:00,75.6,46.8,29.53,South,186,0.0,0.0,36,0.00,,,0.00,VWS V14.01,2013-08-23 21:55:00,
2013-08-23 18:00:00,75.6,46.8,29.53,South,186,0.0,0.0,36,0.00,,,0.00,VWS V14.01,2013-08-23 22:00:00,
2013-08-23 18:05:00,75.7,46.2,29.53,South,175,0.0,0.0,35,0.00,,,0.00,VWS V14.01,2013-08-23 22:05:00,
2013-08-23 18:10:00,75.7,46.2,29.53,South,175,0.0,0.0,35,0.00,,,0.00,VWS V14.01,2013-08-23 22:10:00,
2013-08-23 18:15:00,75.6,46.0,29.50,South,175,0.0,0.0,35,0.00,,,0.00,VWS V14.01,2013-08-23 22:15:00,
2013-08-23 18:20:00,75.4,46.6,29.50,South,175,0.0,0.0,36,0.00,,,0.00,VWS V14.01,2013-08-23 22:20:00,
2013-08-23 18:25:00,75.2,46.4,29.50,South,175,0.0,0.0,36,0.00,,,0.00,VWS V14.01,2013-08-23 22:25:00,
2013-08-23 18:30:00,74.8,46.8,29.50,SW,225,0.0,0.0,37,0.00,,,0.00,VWS V14.01,2013-08-23 22:30:00,
2013-08-23 18:35:00,74.5,47.9,29.53,SW,225,0.0,0.0,39,0.00,,,0.00,VWS V14.01,2013-08-23 22:35:00,
2013-08-23 18:40:00,74.5,49.3,29.53,SW,225,0.0,0.0,41,0.00,,,0.00,VWS V14.01,2013-08-23 22:40:00,
2013-08-23 18:45:00,74.1,49.6,29.53,SW,225,0.0,0.0,42,0.00,,,0.00,VWS V14.01,2013-08-23 22:45:00,
2013-08-23 18:50:00,74.1,49.6,29.53,SW,225,0.0,0.0,42,0.00,,,0.00,VWS V14.01,2013-08-23 22:50:00,
2013-08-23 18:55:00,73.8,50.5,29.53,SW,225,0.0,0.0,44,0.00,,,0.00,VWS V14.01,2013-08-23 22:55:00,
2013-08-23 19:00:00,73.8,50.5,29.53,SW,225,0.0,0.0,44,0.00,,,0.00,VWS V14.01,2013-08-23 23:00:00,
2013-08-23 19:05:00,72.9,51.5,29.56,SW,225,0.0,0.0,47,0.00,,,0.00,VWS V14.01,2013-08-23 23:05:00,
2013-08-23 19:10:00,72.5,51.7,29.56,SW,225,0.0,0.0,48,0.00,,,0.00,VWS V14.01,2013-08-23 23:10:00,
2013-08-23 19:15:00,72.3,51.5,29.53,SW,225,0.0,0.0,48,0.00,,,0.00,VWS V14.01,2013-08-23 23:15:00,
2013-08-23 19:20:00,72.0,51.8,29.53,SW,225,0.0,0.0,49,0.00,,,0.00,VWS V14.01,2013-08-23 23:20:00,
2013-08-23 19:25:00,71.8,51.6,29.53,SW,225,0.0,0.0,49,0.00,,,0.00,VWS V14.01,2013-08-23 23:25:00,
2013-08-23 19:30:00,71.4,51.3,29.53,SW,225,0.0,0.0,49,0.00,,,0.00,VWS V14.01,2013-08-23 23:30:00,
2013-08-23 19:35:00,71.4,51.3,29.53,SW,225,0.0,0.0,49,0.00,,,0.00,VWS V14.01,2013-08-23 23:35:00,
2013-08-23 19:40:00,71.4,51.3,29.53,SW,225,0.0,0.0,49,0.00,,,0.00,VWS V14.01,2013-08-23 23:40:00,
2013-08-23 19:45:00,70.3,51.4,29.53,SW,225,0.0,0.0,51,0.00,,,0.00,VWS V14.01,2013-08-23 23:45:00,
2013-08-23 19:50:00,70.0,51.6,29.56,SW,225,0.0,0.0,52,0.00,,,0.00,VWS V14.01,2013-08-23 23:50:00,
2013-08-23 19:55:00,69.6,51.8,29.56,SW,225,0.0,0.0,53,0.00,,,0.00,VWS V14.01,2013-08-23 23:55:00,
2013-08-23 20:00:00,69.4,52.1,29.56,SW,225,0.0,0.0,54,0.00,,,0.00,VWS V14.01,2013-08-24 00:00:00,
2013-08-23 20:05:00,68.9,52.1,29.56,SW,225,0.0,0.0,55,0.00,,,0.00,VWS V14.01,2013-08-24 00:05:00,
2013-08-23 20:10:00,68.9,52.1,29.56,SW,225,0.0,0.0,55,0.00,,,0.00,VWS V14.01,2013-08-24 00:10:00,
2013-08-23 20:15:00,68.5,52.2,29.56,SW,225,0.0,0.0,56,0.00,,,0.00,VWS V14.01,2013-08-24 00:15:00,
2013-08-23 20:20:00,68.2,51.9,29.56,SW,225,0.0,0.0,56,0.00,,,0.00,VWS V14.01,2013-08-24 00:20:00,
2013-08-23 20:24:00,68.0,52.2,29.56,SW,225,0.0,0.0,57,0.00,,,0.00,VWS V14.01,2013-08-24 00:24:00,
2013-08-23 20:29:00,67.8,52.5,29.56,SW,225,0.0,0.0,58,0.00,,,0.00,VWS V14.01,2013-08-24 00:29:00,
2013-08-23 20:34:00,67.5,52.2,29.56,SW,225,0.0,0.0,58,0.00,,,0.00,VWS V14.01,2013-08-24 00:34:00,
2013-08-23 20:39:00,67.3,52.5,29.56,SW,225,0.0,0.0,59,0.00,,,0.00,VWS V14.01,2013-08-24 00:39:00,
2013-08-23 20:44:00,66.9,52.6,29.59,SW,225,0.0,0.0,60,0.00,,,0.00,VWS V14.01,2013-08-24 00:44:00,
2013-08-23 20:49:00,66.9,52.6,29.59,SW,225,0.0,0.0,60,0.00,,,0.00,VWS V14.01,2013-08-24 00:49:00,
2013-08-23 20:54:00,66.7,52.9,29.59,SW,225,0.0,0.0,61,0.00,,,0.00,VWS V14.01,2013-08-24 00:54:00,
2013-08-23 20:59:00,66.4,52.5,29.59,SW,225,0.0,0.0,61,0.00,,,0.00,VWS V14.01,2013-08-24 00:59:00,
2013-08-23 21:04:00,66.2,52.4,29.59,SW,225,0.0,0.0,61,0.00,,,0.00,VWS V14.01,2013-08-24 01:04:00,
2013-08-23 21:09:00,66.0,52.6,29.59,SW,225,0.0,0.0,62,0.00,,,0.00,VWS V14.01,2013-08-24 01:09:00,
2013-08-23 21:14:00,65.7,52.3,29.59,SW,225,0.0,0.0,62,0.00,,,0.00,VWS V14.01,2013-08-24 01:14:00,
2013-08-23 21:19:00,65.3,52.4,29.59,SW,225,0.0,0.0,63,0.00,,,0.00,VWS V14.01,2013-08-24 01:19:00,
2013-08-23 21:24:00,64.9,52.1,29.59,SW,225,0.0,0.0,63,0.00,,,0.00,VWS V14.01,2013-08-24 01:24:00,
2013-08-23 21:29:00,64.8,52.3,29.59,SW,225,0.0,0.0,64,0.00,,,0.00,VWS V14.01,2013-08-24 01:29:00,
2013-08-23 21:34:00,64.4,52.0,29.59,SW,225,0.0,0.0,64,0.00,,,0.00,VWS V14.01,2013-08-24 01:34:00,
2013-08-23 21:39:00,64.4,52.4,29.59,SW,225,0.0,0.0,65,0.00,,,0.00,VWS V14.01,2013-08-24 01:39:00,
2013-08-23 21:44:00,64.2,52.2,29.59,SW,225,0.0,0.0,65,0.00,,,0.00,VWS V14.01,2013-08-24 01:44:00,
2013-08-23 21:49:00,64.2,52.2,29.59,SW,225,0.0,0.0,65,0.00,,,0.00,VWS V14.01,2013-08-24 01:49:00,
2013-08-23 21:54:00,64.0,52.0,29.59,SW,225,0.0,0.0,65,0.00,,,0.00,VWS V14.01,2013-08-24 01:54:00,
2013-08-23 21:59:00,64.0,52.0,29.62,SW,225,0.0,0.0,65,0.00,,,0.00,VWS V14.01,2013-08-24 01:59:00,
2013-08-23 22:04:00,63.9,51.9,29.62,SW,225,0.0,0.0,65,0.00,,,0.00,VWS V14.01,2013-08-24 02:04:00,
2013-08-23 22:09:00,63.9,51.9,29.62,SW,225,0.0,0.0,65,0.00,,,0.00,VWS V14.01,2013-08-24 02:09:00,
2013-08-23 22:14:00,63.5,52.0,29.62,SW,225,0.0,0.0,66,0.00,,,0.00,VWS V14.01,2013-08-24 02:14:00,
2013-08-23 22:19:00,63.5,52.0,29.62,SW,225,0.0,0.0,66,0.00,,,0.00,VWS V14.01,2013-08-24 02:19:00,
2013-08-23 22:24:00,63.3,51.8,29.62,SW,225,0.0,0.0,66,0.00,,,0.00,VWS V14.01,2013-08-24 02:24:00,
2013-08-23 22:29:00,63.3,51.8,29.62,SW,225,0.0,0.0,66,0.00,,,0.00,VWS V14.01,2013-08-24 02:29:00,
2013-08-23 22:34:00,63.3,51.8,29.62,SW,225,0.0,0.0,66,0.00,,,0.00,VWS V14.01,2013-08-24 02:34:00,
2013-08-23 22:39:00,63.3,51.4,29.62,SW,225,0.0,0.0,65,0.00,,,0.00,VWS V14.01,2013-08-24 02:39:00,
2013-08-23 22:44:00,63.3,51.4,29.62,SW,225,0.0,0.0,65,0.00,,,0.00,VWS V14.01,2013-08-24 02:44:00,
2013-08-23 22:49:00,63.5,51.5,29.62,SW,225,0.0,0.0,65,0.00,,,0.00,VWS V14.01,2013-08-24 02:49:00,
2013-08-23 22:54:00,63.5,51.1,29.62,SW,225,0.0,0.0,64,0.00,,,0.00,VWS V14.01,2013-08-24 02:54:00,
2013-08-23 22:59:00,63.5,51.1,29.62,SW,225,0.0,0.0,64,0.00,,,0.00,VWS V14.01,2013-08-24 02:59:00,
2013-08-23 23:04:00,63.3,50.5,29.62,SW,225,0.0,0.0,63,0.00,,,0.00,VWS V14.01,2013-08-24 03:04:00,
2013-08-23 23:09:00,63.1,50.3,29.62,SW,225,0.0,0.0,63,0.00,,,0.00,VWS V14.01,2013-08-24 03:09:00,
2013-08-23 23:14:00,63.0,50.2,29.62,SW,225,0.0,0.0,63,0.00,,,0.00,VWS V14.01,2013-08-24 03:14:00,
2013-08-23 23:19:00,63.0,50.2,29.62,SW,225,0.0,0.0,63,0.00,,,0.00,VWS V14.01,2013-08-24 03:19:00,
2013-08-23 23:24:00,62.8,50.0,29.62,SW,225,0.0,0.0,63,0.00,,,0.00,VWS V14.01,2013-08-24 03:24:00,
2013-08-23 23:29:00,62.8,50.0,29.62,SW,225,0.0,0.0,63,0.00,,,0.00,VWS V14.01,2013-08-24 03:29:00,
2013-08-23 23:34:00,62.8,49.6,29.65,SW,225,0.0,0.0,62,0.00,,,0.00,VWS V14.01,2013-08-24 03:34:00,
2013-08-23 23:39:00,62.8,49.6,29.65,SW,225,0.0,0.0,62,0.00,,,0.00,VWS V14.01,2013-08-24 03:39:00,
2013-08-23 23:44:00,63.0,49.3,29.65,SW,225,0.0,0.0,61,0.00,,,0.00,VWS V14.01,2013-08-24 03:44:00,
2013-08-23 23:49:00,63.0,49.3,29.65,SW,225,0.0,0.0,61,0.00,,,0.00,VWS V14.01,2013-08-24 03:49:00,
2013-08-23 23:54:00,63.0,48.9,29.65,SW,225,0.0,0.0,60,0.00,,,0.00,VWS V14.01,2013-08-24 03:54:00,
2013-08-23 23:59:00,63.0,48.4,29.65,SW,225,0.0,0.0,59,0.00,,,0.00,VWS V14.01,2013-08-24 03:59:00,